Flag Weather past 2 weeks in Brăila, Romania

Now
31 °F

Overcast.


Feels Like: 27 °F
Forecast: 26 / 33 °F
Wind: 5 mph from North

Location: Galati

Current Time: Nov 25, 2014 at 3:08:18 AM

Latest Report: Nov 25, 2014 at 2:00 AM


Visibility: 6 mi

Pressure: 30.49 "Hg

Humidity: 88%

Dew point: 28 °F

Location of BrăilaLocation

Historic Weather in Brăila — Graph

°F

Brăila temperature yesterday

Maximum temperature yesterday: 37 °F (at 3:00 PM)
Minimum temperature yesterday: 31 °F (at 7:00 PM)
Average temperature yesterday: 34 °F

Past Weeks' High & Low Weather Summary

 TemperatureHumidityPressure
High56 °F (Nov 12, 12:00 PM)100% (Nov 10, 3:00 AM)30.50 "Hg (Nov 10, 3:00 AM)
Low31 °F (Nov 24, 7:00 PM)72% (Nov 12, 12:00 PM)29.92 "Hg (Nov 20, 7:00 AM)
Average42 °F94%30.18 "Hg
* Reported Nov 10 1:00 AM — Nov 25 1:00 AM, Brăila, Weather by CustomWeather, © 2014

Note: Actual official high and low records may vary slightly from our data, if they occured in-between our weather recording intervals... More about our weather records

Advertising

Brăila weather history for previous 24 hours

 ConditionsComfort  
Time TempWeatherWind HumidityBarometerVisibility
1:00 AM
Nov 25
31 °FOvercast.5 mph87%30.49 "Hg6 mi
12:00 AM31 °FPassing clouds.6 mph88%30.49 "Hg6 mi
11:00 PM
Nov 24
32 °FOvercast.5 mph87%30.50 "Hg6 mi
10:00 PM32 °FOvercast.3 mph88%30.50 "Hg6 mi
9:00 PM31 °FPassing clouds.5 mph95%30.49 "Hg6 mi
8:00 PM31 °FPassing clouds.5 mph96%30.48 "Hg6 mi
7:00 PM31 °FPassing clouds.3 mph95%30.47 "Hg6 mi
6:00 PM33 °FPassing clouds.3 mph89%30.46 "Hg6 mi
5:00 PM34 °FFog.5 mph88%30.45 "Hg2 mi
4:00 PM36 °FFog.5 mph86%30.45 "Hg2 mi
3:00 PM37 °FFog.5 mph83%30.45 "Hg2 mi
2:00 PM36 °FFog.5 mph84%30.46 "Hg2 mi
1:00 PM36 °FFog.3 mph83%30.48 "Hg2 mi
12:00 PM35 °FFog.3 mph87%30.49 "Hg2 mi
11:00 AM34 °FFog.5 mph89%30.50 "Hg2 mi
10:00 AM33 °FFog.5 mph90%30.49 "Hg2 mi
9:00 AM33 °FFog.3 mph96%30.47 "Hg2 mi
8:00 AM33 °FFog.3 mph93%30.47 "Hg2 mi
7:00 AM33 °FFog.3 mph91%30.47 "Hg2 mi
6:00 AM34 °FFog.2 mph85%30.46 "Hg2 mi
5:00 AM34 °FFog.2 mph98%30.46 "Hg2 mi
4:00 AM35 °FFog.2 mph97%30.45 "Hg2 mi
3:00 AM35 °FFog.2 mph94%30.45 "Hg2 mi
Weather by CustomWeather, © 2014

See weather overviewHow to use our weather pages